Location: Newark
(47.5833°N, 8.1500°E)
Time: 09:36:07
(UTC+00:00)

Tiros 1 despin weight - Pass Details

Date: 05 November 2020
Orbit: 593 x 642 km, 48.2° (Epoch: 26 November)

Event Time Altitude Azimuth Distance (km) Brightness Sun altitude
Rises 00:38:13 0° 280° (W) 2,871 - -53.4°
Reaches altitude 10° 00:40:32 10° 280° (W) 1,958 - -53.2°
Maximum altitude 00:45:01 86° 193° (SSW) 608 - -52.7°
Drops below altitude 10° 00:49:27 10° 104° (ESE) 1,931 - -52.3°
Sets 00:51:44 0° 104° (ESE) 2,827 - -52.0°
